Flag for U.S.A. Weather past 2 weeks in Topeka, Kansas, U.S.A.

Now
64 °F

Partly sunny.


Feels Like: 64 °F
Forecast: 52 / 69 °F
Wind: 12 mph from East

Location: Philip Billard Municipal Airport

Current Time: Apr 24, 2015 at 7:26:16 PM

Latest Report: Apr 24, 2015 at 6:53 PM


Visibility: 10 mi

Pressure: 29.56 "Hg

Humidity: 73%

Dew point: 55 °F

Location of TopekaLocation

Historic Weather in Topeka — Graph

°F

Topeka temperature yesterday

Maximum temperature yesterday: 64 °F (at 3:53 PM)
Minimum temperature yesterday: 43 °F (at 12:53 AM)
Average temperature yesterday: 55 °F

Past Weeks' High & Low Weather Summary

 TemperatureHumidityPressure
High76 °F (Apr 16, 3:53 PM)100% (Apr 17, 7:03 AM)30.26 "Hg (Apr 17, 7:03 AM)
Low38 °F (Apr 21, 5:53 AM)20% (Apr 21, 4:53 PM)29.58 "Hg (Apr 24, 5:53 PM)
Average57 °F63%29.98 "Hg
* Reported Apr 9 5:53 PM — Apr 24 5:53 PM, Topeka, Weather by CustomWeather, © 2015

Note: Actual official high and low records may vary slightly from our data, if they occured in-between our weather recording intervals... More about our weather records

Advertising

Topeka weather history for previous 24 hours

 ConditionsComfort  
Time TempWeatherWind HumidityBarometerVisibility
5:53 PM
Fri, Apr 24
63 °FMostly cloudy.9 mph75%29.58 "Hg10 mi
4:53 PM62 °FOvercast.10 mph78%29.62 "Hg10 mi
3:53 PM62 °FMostly cloudy.12 mph80%29.65 "Hg6 mi
2:53 PM60 °FOvercast.12 mph83%29.67 "Hg10 mi
1:53 PM60 °FOvercast.13 mph78%29.69 "Hg10 mi
12:53 PM58 °FOvercast.12 mph87%29.73 "Hg10 mi
11:53 AM59 °FOvercast.14 mph75%29.75 "Hg10 mi
10:53 AM58 °FOvercast.14 mph72%29.78 "Hg10 mi
9:53 AM58 °FOvercast.15 mph70%29.77 "Hg10 mi
8:53 AM56 °FOvercast.17 mph70%29.79 "Hg10 mi
7:53 AM56 °FMostly cloudy.16 mph67%29.79 "Hg10 mi
6:53 AM54 °FOvercast.9 mph74%29.83 "Hg10 mi
5:53 AM56 °FOvercast.9 mph65%29.83 "Hg10 mi
4:53 AM55 °FOvercast.7 mph69%29.85 "Hg10 mi
3:53 AM54 °FMostly cloudy.5 mph74%29.88 "Hg10 mi
2:53 AM58 °FMostly cloudy.3 mph51%29.89 "Hg10 mi
1:53 AM57 °FMostly cloudy.8 mph51%29.90 "Hg10 mi
12:53 AM59 °FOvercast.9 mph44%29.92 "Hg10 mi
11:53 PM
Thu, Apr 23
60 °FOvercast.10 mph41%29.93 "Hg10 mi
10:53 PM60 °FOvercast.10 mph39%29.93 "Hg10 mi
9:53 PM60 °FOvercast.10 mph39%29.93 "Hg10 mi
8:53 PM59 °FMostly cloudy.6 mph42%29.93 "Hg10 mi
7:53 PM61 °FBroken clouds.10 mph34%29.94 "Hg10 mi
Weather by CustomWeather, © 2015

See weather overviewHow to use our weather pages